TimeCDT,TemperatureF,Dew PointF,Humidity,Sea Level PressureIn,VisibilityMPH,Wind Direction,Wind SpeedMPH,Gust SpeedMPH,PrecipitationIn,Events,Conditions,WindDirDegrees,DateUTC
12:03 AM,66.2,64.4,94,29.80,10.0,ENE,18.4,27.6,0.00,Rain,Light Rain,60,2012-09-30 05:03:00
12:53 AM,66.0,64.0,93,29.78,9.0,NE,13.8,20.7,0.00,Rain,Light Rain,50,2012-09-30 05:53:00
1:53 AM,66.0,64.0,93,29.76,10.0,NE,15.0,24.2,0.04,Rain,Light Rain,50,2012-09-30 06:53:00
2:02 AM,66.2,64.4,94,29.77,10.0,NE,17.3,24.2,0.00,Rain,Light Rain,50,2012-09-30 07:02:00
2:23 AM,66.2,64.4,94,29.77,10.0,NE,11.5,25.3,0.00,Rain,Light Rain,40,2012-09-30 07:23:00
2:53 AM,66.0,64.0,93,29.75,3.0,NE,10.4,19.6,0.07,Rain,Heavy Rain,50,2012-09-30 07:53:00
3:15 AM,66.2,64.4,94,29.77,2.0,NE,13.8,20.7,0.11,Rain,Heavy Rain,40,2012-09-30 08:15:00
3:53 AM,66.0,64.9,96,29.73,4.0,NE,12.7,23.0,0.36,Rain,Rain,40,2012-09-30 08:53:00
4:53 AM,66.0,64.9,96,29.72,5.0,NNE,16.1,25.3,0.12,Rain,Light Rain,30,2012-09-30 09:53:00
5:53 AM,64.9,64.0,97,29.73,10.0,NNE,11.5,-,0.06,Rain,Light Rain,30,2012-09-30 10:53:00
6:53 AM,63.0,63.0,100,29.75,6.0,NNE,11.5,23.0,0.00,Rain,Light Rain,20,2012-09-30 11:53:00
7:53 AM,63.0,62.1,97,29.76,4.0,NNE,16.1,23.0,0.01,Rain,Light Rain,20,2012-09-30 12:53:00
7:59 AM,62.6,62.6,100,29.77,1.8,NNE,11.5,23.0,0.00,Rain,Light Rain,20,2012-09-30 12:59:00
8:18 AM,62.6,62.6,100,29.78,2.5,North,11.5,19.6,0.01,Rain,Light Rain,10,2012-09-30 13:18:00
8:29 AM,62.6,62.6,100,29.79,3.0,North,11.5,19.6,0.01,Rain,Light Rain,10,2012-09-30 13:29:00
8:36 AM,62.6,62.6,100,29.79,2.0,North,12.7,-,0.01,Rain,Light Rain,10,2012-09-30 13:36:00
8:53 AM,62.1,62.1,100,29.78,1.5,North,11.5,20.7,0.02,Rain,Light Rain,10,2012-09-30 13:53:00
9:35 AM,62.6,62.6,100,29.80,2.0,North,11.5,-,0.02,Rain,Light Rain,10,2012-09-30 14:35:00
9:53 AM,62.1,62.1,100,29.79,1.8,North,12.7,19.6,0.04,Rain,Rain,360,2012-09-30 14:53:00
10:06 AM,62.6,62.6,100,29.81,2.0,North,11.5,19.6,0.01,Rain,Light Rain,360,2012-09-30 15:06:00
10:19 AM,62.6,62.6,100,29.81,3.0,North,12.7,-,0.01,Rain,Light Rain,360,2012-09-30 15:19:00
10:53 AM,63.0,62.1,97,29.80,3.0,North,13.8,-,0.02,Rain,Light Rain,10,2012-09-30 15:53:00
11:01 AM,62.6,62.6,100,29.81,2.0,North,11.5,19.6,0.00,Rain,Light Rain,10,2012-09-30 16:01:00
11:23 AM,62.6,62.6,100,29.81,1.8,North,15.0,-,0.01,Rain,Light Rain,360,2012-09-30 16:23:00
11:30 AM,62.6,62.6,100,29.81,2.0,North,11.5,-,0.02,Rain,Light Rain,360,2012-09-30 16:30:00
11:53 AM,63.0,63.0,100,29.80,1.8,North,12.7,-,0.05,Rain,Rain,360,2012-09-30 16:53:00
12:07 PM,62.6,62.6,100,29.81,2.5,North,13.8,20.7,0.01,Rain,Light Rain,360,2012-09-30 17:07:00
12:21 PM,62.6,62.6,100,29.81,1.8,North,13.8,23.0,0.03,Rain,Rain,360,2012-09-30 17:21:00
12:29 PM,62.6,62.6,100,29.81,2.5,North,16.1,23.0,0.04,Rain,Light Rain,10,2012-09-30 17:29:00
12:46 PM,62.6,62.6,100,29.80,1.5,North,16.1,26.5,0.07,Rain,Rain,10,2012-09-30 17:46:00
12:53 PM,63.0,63.0,100,29.79,1.5,North,17.3,26.5,0.08,Rain,Rain,10,2012-09-30 17:53:00
1:53 PM,61.0,60.1,97,29.79,1.2,North,16.1,29.9,0.16,Rain,Light Rain,360,2012-09-30 18:53:00
2:25 PM,60.8,59.0,94,29.80,2.0,North,18.4,35.7,0.06,Rain,Rain,360,2012-09-30 19:25:00
2:33 PM,60.8,59.0,94,29.79,2.5,North,18.4,29.9,0.06,Rain,Light Rain,360,2012-09-30 19:33:00
2:53 PM,60.1,59.0,96,29.78,3.0,North,19.6,31.1,0.07,Rain,Light Rain,10,2012-09-30 19:53:00
3:02 PM,60.8,59.0,94,29.79,3.0,North,16.1,28.8,0.00,Rain,Light Rain,360,2012-09-30 20:02:00
3:19 PM,60.8,59.0,94,29.79,2.5,NNE,21.9,31.1,0.01,,Overcast,20,2012-09-30 20:19:00
3:41 PM,60.8,59.0,94,29.79,2.0,NNE,24.2,36.8,0.04,Rain,Rain,20,2012-09-30 20:41:00
3:50 PM,60.8,59.0,94,29.79,1.2,NNE,19.6,32.2,0.10,Rain,Heavy Rain,20,2012-09-30 20:50:00
3:53 PM,60.1,59.0,96,29.78,1.0,NNE,15.0,29.9,0.13,Rain,Heavy Rain,20,2012-09-30 20:53:00
3:56 PM,60.8,60.8,100,29.79,1.0,North,15.0,28.8,0.03,Rain,Heavy Rain,10,2012-09-30 20:56:00
4:26 PM,60.8,60.8,100,29.79,2.0,NNE,17.3,28.8,0.21,Rain,Rain,30,2012-09-30 21:26:00
4:37 PM,60.8,60.8,100,29.79,4.0,NNE,11.5,23.0,0.22,Rain,Light Rain,20,2012-09-30 21:37:00
4:53 PM,61.0,61.0,100,29.78,10.0,North,9.2,-,0.22,Rain,Light Rain,360,2012-09-30 21:53:00
5:53 PM,62.1,60.1,93,29.78,10.0,North,11.5,-,0.00,,Mostly Cloudy,350,2012-09-30 22:53:00
6:53 PM,62.1,57.9,86,29.79,10.0,North,10.4,-,0.01,,Scattered Clouds,350,2012-09-30 23:53:00
7:53 PM,61.0,57.9,90,29.80,10.0,NNW,9.2,-,N/A,,Partly Cloudy,340,2012-10-01 00:53:00
8:53 PM,62.1,57.9,86,29.82,10.0,North,12.7,18.4,N/A,,Overcast,350,2012-10-01 01:53:00
9:53 PM,61.0,55.9,83,29.84,10.0,NNW,9.2,-,N/A,,Mostly Cloudy,340,2012-10-01 02:53:00
10:53 PM,62.1,57.0,84,29.84,10.0,NNW,9.2,-,N/A,,Overcast,330,2012-10-01 03:53:00